Content
SEND FEEDBACK

Daily
Averages
Monthly
Summary
United States of America

MARBLEHEAD, OHIO


Home > North America > United States > Ohio
Elevation: 630 feet     Latitude: 41 30N     Longitude: 082 42W

WEATHER
 
SELECT A DAY
Number of Records: 183,761;   Date Range: 10/8/98 - 10/21/14
 
SHARE

PRINT THIS DATA

[ ← Previous Day ]
WEATHER ALMANAC - MARCH 19, 2013
[ Next Day → ]
[ °C ]   °F
Weather ElementAverageHighLow
Temperature30.6 °F37 °F (12:53 am)26.6 °F (9:37 am)
Dewpoint21.1 °F32 °F (12:53 am)17.1 °F (9:53 am)
Humidity68.1 %82 % (12:53 am)54 % (6:53 pm)
Barometer29.83 in29.98 in (9:53 pm)29.72 in (2:19 am)
Wind Speed18.5 mph29.9 mph (1:53 pm)
Wind Gust38 mph (12:53 pm)
Weather ElementAverage
Visibility7.9 mi
Wind DirectionW (268.3 °)

Weather ElementTotal
Precipitation---
Heating Degree Days33.2 (Base 65)
Averaged from 36 records on March 19, 2013
WEATHER CONDITIONS BREAKOUT
WIND DIRECTION BREAKOUT
WEATHER BY HOUR - MARCH 19, 2013
[ °C ]   °F
Local TimeTemperatureDewpointHumidityBarometerVisibilityWind DirectionWind SpeedGust SpeedPrecipitationEventsConditions
12:53 AM37.0 °F32.0 °F82 %29.73 in10.0 miWest (260°)15.0 mph21.9 mphOvercast
1:53 AM37.0 °F30.9 °F79 %29.73 in10.0 miWSW (250°)13.8 mphOvercast
2:19 AM35.6 °F28.4 °F75 %29.72 in10.0 miWest (260°)20.7 mph29.9 mphScattered Clouds
2:53 AM36.0 °F27.0 °F70 %29.74 in10.0 miWest (270°)13.8 mph23.0 mphClear
3:38 AM35.6 °F28.4 °F75 %29.72 in10.0 miWest (270°)16.1 mph27.6 mphOvercast
3:53 AM36.0 °F28.0 °F73 %29.74 in10.0 miWest (270°)20.7 mph28.8 mphOvercast
4:08 AM35.6 °F28.4 °F75 %29.72 in10.0 miWest (270°)19.6 mph31.1 mphOvercast
4:53 AM34.0 °F25.0 °F70 %29.75 in10.0 miWest (270°)17.3 mph26.5 mphScattered Clouds
5:20 AM33.8 °F24.8 °F70 %29.74 in10.0 miWest (260°)16.1 mph31.1 mphMostly Cloudy
5:53 AM32.0 °F24.1 °F73 %29.77 in10.0 miWest (270°)20.7 mph27.6 mphOvercast
6:53 AM30.0 °F21.0 °F69 %29.79 in9.0 miWSW (250°)26.5 mph32.2 mph0.00 inSnowLight Snow
7:53 AM30.0 °F19.9 °F66 %29.80 in9.0 miWest (270°)23.0 mph35.7 mph0.00 inSnowLight Snow
8:53 AM28.0 °F19.0 °F69 %29.81 in4.0 miWest (280°)17.3 mph24.2 mph0.00 inSnowLight Snow
9:19 AM28.4 °F21.2 °F74 %29.79 in2.5 miWest (260°)20.7 mph27.6 mph0.00 inSnowLight Snow
9:37 AM26.6 °F17.6 °F69 %29.81 in9.0 miWest (260°)25.3 mph33.4 mph0.00 inSnowLight Snow
9:45 AM26.6 °F17.6 °F69 %29.81 in9.0 miWest (260°)23.0 mph31.1 mph0.00 inSnowLight Snow
9:53 AM27.0 °F17.1 °F66 %29.83 in9.0 miWest (270°)17.3 mph31.1 mph0.00 inSnowLight Snow
10:27 AM26.6 °F19.4 °F74 %29.80 in2.0 miWest (270°)13.8 mph25.3 mph0.00 inSnowLight Snow
10:34 AM26.6 °F19.4 °F74 %29.80 in3.0 miWest (260°)16.1 mph23.0 mph0.00 inSnowLight Snow
10:42 AM26.6 °F19.4 °F74 %29.81 in2.5 miWest (270°)18.4 mph25.3 mph0.00 inSnowLight Snow
10:53 AM27.0 °F19.9 °F75 %29.84 in1.8 miWest (270°)15.0 mph0.00 inSnowLight Snow
10:58 AM26.6 °F19.4 °F74 %29.82 in2.5 miWest (260°)23.0 mph28.8 mph0.00 inSnowLight Snow
11:05 AM26.6 °F17.6 °F69 %29.82 in6.0 miWest (270°)19.6 mph33.4 mph0.00 inSnowLight Snow
11:53 AM28.0 °F17.1 °F63 %29.85 in7.0 miWest (280°)23.0 mph32.2 mph0.00 inSnowLight Snow
12:53 PM28.9 °F17.1 °F61 %29.85 in9.0 miWest (270°)18.4 mph38.0 mph0.00 inSnowLight Snow
1:53 PM30.0 °F18.0 °F61 %29.86 in7.0 miWest (260°)29.9 mph35.7 mph0.00 inSnowLight Snow
2:53 PM30.0 °F19.0 °F64 %29.88 in7.0 miWest (270°)19.6 mph35.7 mph0.00 inSnowLight Snow
3:53 PM30.0 °F19.0 °F64 %29.89 in9.0 miWest (270°)20.7 mph35.7 mph0.00 inSnowLight Snow
4:53 PM30.0 °F19.0 °F64 %29.91 in9.0 miWest (280°)21.9 mph31.1 mph0.00 inSnowLight Snow
5:53 PM30.9 °F18.0 °F59 %29.93 in9.0 miWest (260°)21.9 mph34.5 mph0.00 inSnowLight Snow
6:53 PM32.0 °F17.1 °F54 %29.94 in9.0 miWest (280°)20.7 mph33.4 mph0.00 inSnowLight Snow
7:53 PM30.9 °F18.0 °F59 %29.95 in10.0 miWest (270°)12.7 mph21.9 mph0.00 inScattered Clouds
8:53 PM30.9 °F19.0 °F61 %29.96 in10.0 miWest (280°)8.1 mph20.7 mphPartly Cloudy
9:53 PM30.9 °F17.1 °F57 %29.98 in10.0 miWest (280°)9.2 mph18.4 mphClear
10:53 PM30.9 °F18.0 °F59 %29.98 in10.0 miWest (280°)16.1 mph23.0 mphClear
11:53 PM30.0 °F18.0 °F61 %29.98 in10.0 miWest (280°)10.4 mphClear
Hourly data recorded from KLPR, located miles away from Marblehead, Ohio







STORIES FROM OUR PARTNERS